Year,Month,Day,Hour,Minute,Value (Times are PST for temperature in C)
2014,06,27,00,00,16.10
2014,06,27,00,01,16.10
2014,06,27,00,02,16.10
2014,06,27,00,03,16.00
2014,06,27,00,04,16.00
2014,06,27,00,05,16.00
2014,06,27,00,06,16.00
2014,06,27,00,07,15.90
2014,06,27,00,08,15.90
2014,06,27,00,09,15.90
2014,06,27,00,10,15.90
2014,06,27,00,11,15.90
2014,06,27,00,12,15.90
2014,06,27,00,13,15.90
2014,06,27,00,14,15.90
2014,06,27,00,15,15.90
2014,06,27,00,16,15.90
2014,06,27,00,17,15.90
2014,06,27,00,18,15.90
2014,06,27,00,19,15.90
2014,06,27,00,20,15.90
2014,06,27,00,21,15.90
2014,06,27,00,22,15.90
2014,06,27,00,23,15.80
2014,06,27,00,24,15.80
2014,06,27,00,25,15.80
2014,06,27,00,26,15.80
2014,06,27,00,27,15.80
2014,06,27,00,28,15.80
2014,06,27,00,29,15.80
2014,06,27,00,30,15.70
2014,06,27,00,31,15.70
2014,06,27,00,32,15.70
2014,06,27,00,33,15.70
2014,06,27,00,34,15.70
2014,06,27,00,35,15.70
2014,06,27,00,36,15.60
2014,06,27,00,37,15.60
2014,06,27,00,38,15.60
2014,06,27,00,39,15.60
2014,06,27,00,40,15.60
2014,06,27,00,41,15.50
2014,06,27,00,42,15.50
2014,06,27,00,43,15.50
2014,06,27,00,44,15.40
2014,06,27,00,45,15.40
2014,06,27,00,46,15.40
2014,06,27,00,47,15.40
2014,06,27,00,48,15.40
2014,06,27,00,49,15.40
2014,06,27,00,50,15.40
2014,06,27,00,51,15.40
2014,06,27,00,52,15.40
2014,06,27,00,53,15.40
2014,06,27,00,54,15.50
2014,06,27,00,55,15.50
2014,06,27,00,56,15.50
2014,06,27,00,57,15.40
2014,06,27,00,58,15.40
2014,06,27,00,59,15.40
2014,06,27,01,00,15.40
2014,06,27,01,01,15.40
2014,06,27,01,02,15.40
2014,06,27,01,03,15.40
2014,06,27,01,04,15.40
2014,06,27,01,05,15.30
2014,06,27,01,06,15.30
2014,06,27,01,07,15.30
2014,06,27,01,08,15.30
2014,06,27,01,09,15.30
2014,06,27,01,10,15.30
2014,06,27,01,11,15.30
2014,06,27,01,12,15.30
2014,06,27,01,13,15.30
2014,06,27,01,14,15.30
2014,06,27,01,15,15.30
2014,06,27,01,16,15.30
2014,06,27,01,17,15.30
2014,06,27,01,18,15.30
2014,06,27,01,19,15.30
2014,06,27,01,20,15.30
2014,06,27,01,21,15.30
2014,06,27,01,22,15.30
2014,06,27,01,23,15.30
2014,06,27,01,24,15.20
2014,06,27,01,25,15.20
2014,06,27,01,26,15.20
2014,06,27,01,27,15.20
2014,06,27,01,28,15.20
2014,06,27,01,29,15.20
2014,06,27,01,30,15.10
2014,06,27,01,31,15.10
2014,06,27,01,32,15.10
2014,06,27,01,33,15.00
2014,06,27,01,34,15.00
2014,06,27,01,35,15.00
2014,06,27,01,36,14.90
2014,06,27,01,37,14.90
2014,06,27,01,38,14.90
2014,06,27,01,39,14.90
2014,06,27,01,40,14.90
2014,06,27,01,41,14.90
2014,06,27,01,42,14.90
2014,06,27,01,43,14.90
2014,06,27,01,44,15.00
2014,06,27,01,45,15.00
2014,06,27,01,46,15.00
2014,06,27,01,47,15.00
2014,06,27,01,48,15.00
2014,06,27,01,49,15.00
2014,06,27,01,50,15.10
2014,06,27,01,51,15.10
2014,06,27,01,52,15.00
2014,06,27,01,53,15.00
2014,06,27,01,54,15.00
2014,06,27,01,55,15.00
2014,06,27,01,56,14.90
2014,06,27,01,57,14.90
2014,06,27,01,58,15.00
2014,06,27,01,59,15.00
2014,06,27,02,00,15.00
2014,06,27,02,01,15.00
2014,06,27,02,02,15.00
2014,06,27,02,03,15.00
2014,06,27,02,04,15.10
2014,06,27,02,05,15.10
2014,06,27,02,06,15.00
2014,06,27,02,07,15.00
2014,06,27,02,08,15.10
2014,06,27,02,09,15.10
2014,06,27,02,10,15.10
2014,06,27,02,11,15.10
2014,06,27,02,12,15.10
2014,06,27,02,13,15.10
2014,06,27,02,14,15.10
2014,06,27,02,15,15.10
2014,06,27,02,16,15.10
2014,06,27,02,17,15.10
2014,06,27,02,18,15.10
2014,06,27,02,19,15.10
2014,06,27,02,20,15.00
2014,06,27,02,21,15.00
2014,06,27,02,22,15.00
2014,06,27,02,23,15.00
2014,06,27,02,24,15.00
2014,06,27,02,25,15.00
2014,06,27,02,26,15.00
2014,06,27,02,27,15.00
2014,06,27,02,28,15.00
2014,06,27,02,29,15.00
2014,06,27,02,30,15.00
2014,06,27,02,31,15.00
2014,06,27,02,32,15.00
2014,06,27,02,33,14.90
2014,06,27,02,34,14.90
2014,06,27,02,35,14.90
2014,06,27,02,36,14.90
2014,06,27,02,37,14.90
2014,06,27,02,38,14.90
2014,06,27,02,39,14.90
2014,06,27,02,40,14.90
2014,06,27,02,41,14.90
2014,06,27,02,42,14.90
2014,06,27,02,43,14.80
2014,06,27,02,44,14.80
2014,06,27,02,45,14.80
2014,06,27,02,46,14.80
2014,06,27,02,47,14.70
2014,06,27,02,48,14.70
2014,06,27,02,49,14.70
2014,06,27,02,50,14.70
2014,06,27,02,51,14.60
2014,06,27,02,52,14.60
2014,06,27,02,53,14.60
2014,06,27,02,54,14.60
2014,06,27,02,55,14.60
2014,06,27,02,56,14.60
2014,06,27,02,57,14.50
2014,06,27,02,58,14.50
2014,06,27,02,59,14.50
2014,06,27,03,00,14.50
2014,06,27,03,01,14.50
2014,06,27,03,02,14.40
2014,06,27,03,03,14.40
2014,06,27,03,04,14.40
2014,06,27,03,05,14.40
2014,06,27,03,06,14.40
2014,06,27,03,07,14.30
2014,06,27,03,08,14.30
2014,06,27,03,09,14.30
2014,06,27,03,10,14.30
2014,06,27,03,11,14.20
2014,06,27,03,12,14.20
2014,06,27,03,13,14.20
2014,06,27,03,14,14.20
2014,06,27,03,15,14.20
2014,06,27,03,16,14.20
2014,06,27,03,17,14.20
2014,06,27,03,18,14.10
2014,06,27,03,19,14.10
2014,06,27,03,20,14.00
2014,06,27,03,21,13.90
2014,06,27,03,22,13.90
2014,06,27,03,23,13.80
2014,06,27,03,24,13.80
2014,06,27,03,25,13.70
2014,06,27,03,26,13.60
2014,06,27,03,27,13.50
2014,06,27,03,28,13.40
2014,06,27,03,29,13.30
2014,06,27,03,30,13.30
2014,06,27,03,31,13.20
2014,06,27,03,32,13.10
2014,06,27,03,33,13.00
2014,06,27,03,34,13.00
2014,06,27,03,35,12.90
2014,06,27,03,36,12.80
2014,06,27,03,37,12.80
2014,06,27,03,38,12.70
2014,06,27,03,39,12.60
2014,06,27,03,40,12.60
2014,06,27,03,41,12.50
2014,06,27,03,42,12.40
2014,06,27,03,43,12.30
2014,06,27,03,44,12.30
2014,06,27,03,45,12.30
2014,06,27,03,46,12.20
2014,06,27,03,47,12.20
2014,06,27,03,48,12.20
2014,06,27,03,49,12.20
2014,06,27,03,50,12.20
2014,06,27,03,51,12.20
2014,06,27,03,52,12.20
2014,06,27,03,53,12.20
2014,06,27,03,54,12.20
2014,06,27,03,55,12.20
2014,06,27,03,56,12.20
2014,06,27,03,57,12.20
2014,06,27,03,58,12.20
2014,06,27,03,59,12.20
2014,06,27,04,00,12.20
2014,06,27,04,01,12.20
2014,06,27,04,02,12.20
2014,06,27,04,03,12.20
2014,06,27,04,04,12.20
2014,06,27,04,05,12.20
2014,06,27,04,06,12.20
2014,06,27,04,07,12.20
2014,06,27,04,08,12.20
2014,06,27,04,09,12.20
2014,06,27,04,10,12.20
2014,06,27,04,11,12.20
2014,06,27,04,12,12.20
2014,06,27,04,13,12.20
2014,06,27,04,14,12.20
2014,06,27,04,15,12.20
2014,06,27,04,16,12.20
2014,06,27,04,17,12.20
2014,06,27,04,18,12.20
2014,06,27,04,19,12.20
2014,06,27,04,20,12.20
2014,06,27,04,21,12.20
2014,06,27,04,22,12.20
2014,06,27,04,23,12.20
2014,06,27,04,24,12.20
2014,06,27,04,25,12.20
2014,06,27,04,26,12.20
2014,06,27,04,27,12.20
2014,06,27,04,28,12.20
2014,06,27,04,29,12.20
2014,06,27,04,30,12.10
2014,06,27,04,31,12.10
2014,06,27,04,32,12.10
2014,06,27,04,33,12.10
2014,06,27,04,34,12.20
2014,06,27,04,35,12.20
2014,06,27,04,36,12.10
2014,06,27,04,37,12.20
2014,06,27,04,38,12.10
2014,06,27,04,39,12.10
2014,06,27,04,40,12.10
2014,06,27,04,41,12.10
2014,06,27,04,42,12.10
2014,06,27,04,43,12.10
2014,06,27,04,44,12.10
2014,06,27,04,45,12.00
2014,06,27,04,46,12.00
2014,06,27,04,47,12.00
2014,06,27,04,48,12.00
2014,06,27,04,49,11.90
2014,06,27,04,50,11.90
2014,06,27,04,51,11.90
2014,06,27,04,52,11.90
2014,06,27,04,53,11.90
2014,06,27,04,54,11.80
2014,06,27,04,55,11.80
2014,06,27,04,56,11.80
2014,06,27,04,57,11.80
2014,06,27,04,58,11.80
2014,06,27,04,59,11.70
2014,06,27,05,00,11.70
2014,06,27,05,01,11.70
2014,06,27,05,02,11.70
2014,06,27,05,03,11.70
2014,06,27,05,04,11.60
2014,06,27,05,05,11.60
2014,06,27,05,06,11.60
2014,06,27,05,07,11.60
2014,06,27,05,08,11.60
2014,06,27,05,09,11.60
2014,06,27,05,10,11.50
2014,06,27,05,11,11.50
2014,06,27,05,12,11.50
2014,06,27,05,13,11.50
2014,06,27,05,14,11.50
2014,06,27,05,15,11.50
2014,06,27,05,16,11.50
2014,06,27,05,17,11.50
2014,06,27,05,18,11.50
2014,06,27,05,19,11.50
2014,06,27,05,20,11.50
2014,06,27,05,21,11.50
2014,06,27,05,22,11.50
2014,06,27,05,23,11.50
2014,06,27,05,24,11.50
2014,06,27,05,25,11.50
2014,06,27,05,26,11.40
2014,06,27,05,27,11.50
2014,06,27,05,28,11.40
2014,06,27,05,29,11.40
2014,06,27,05,30,11.40
2014,06,27,05,31,11.40
2014,06,27,05,32,11.40
2014,06,27,05,33,11.40
2014,06,27,05,34,11.40
2014,06,27,05,35,11.40
2014,06,27,05,36,11.40
2014,06,27,05,37,11.40
2014,06,27,05,38,11.40
2014,06,27,05,39,11.40
2014,06,27,05,40,11.40
2014,06,27,05,41,11.40
2014,06,27,05,42,11.40
2014,06,27,05,43,11.40
2014,06,27,05,44,11.40
2014,06,27,05,45,11.40
2014,06,27,05,46,11.40
2014,06,27,05,47,11.40
2014,06,27,05,48,11.40
2014,06,27,05,49,11.40
2014,06,27,05,50,11.40
2014,06,27,05,51,11.40
2014,06,27,05,52,11.40
2014,06,27,05,53,11.40
2014,06,27,05,54,11.40
2014,06,27,05,55,11.40
2014,06,27,05,56,11.40
2014,06,27,05,57,11.40
2014,06,27,05,58,11.40
2014,06,27,05,59,11.40
2014,06,27,06,00,11.40
2014,06,27,06,01,11.40
2014,06,27,06,02,11.40
2014,06,27,06,03,11.40
2014,06,27,06,04,11.40
2014,06,27,06,05,11.30
2014,06,27,06,06,11.30
2014,06,27,06,07,11.30
2014,06,27,06,08,11.40
2014,06,27,06,09,11.30
2014,06,27,06,10,11.40
2014,06,27,06,11,11.40
2014,06,27,06,12,11.30
2014,06,27,06,13,11.30
2014,06,27,06,14,11.30
2014,06,27,06,15,11.30
2014,06,27,06,16,11.30
2014,06,27,06,17,11.30
2014,06,27,06,18,11.30
2014,06,27,06,19,11.30
2014,06,27,06,20,11.30
2014,06,27,06,21,11.30
2014,06,27,06,22,11.30
2014,06,27,06,23,11.30
2014,06,27,06,24,11.30
2014,06,27,06,25,11.30
2014,06,27,06,26,11.30
2014,06,27,06,27,11.30
2014,06,27,06,28,11.30
2014,06,27,06,29,11.30
2014,06,27,06,30,11.30
2014,06,27,06,31,11.40
2014,06,27,06,32,11.30
2014,06,27,06,33,11.30
2014,06,27,06,34,11.40
2014,06,27,06,35,11.40
2014,06,27,06,36,11.40
2014,06,27,06,37,11.40
2014,06,27,06,38,11.40
2014,06,27,06,39,11.40
2014,06,27,06,40,11.50
2014,06,27,06,41,11.50
2014,06,27,06,42,11.50
2014,06,27,06,43,11.50
2014,06,27,06,44,11.50
2014,06,27,06,45,11.40
2014,06,27,06,46,11.40
2014,06,27,06,47,11.40
2014,06,27,06,48,11.40
2014,06,27,06,49,11.50
2014,06,27,06,50,11.40
2014,06,27,06,51,11.50
2014,06,27,06,52,11.50
2014,06,27,06,53,11.50
2014,06,27,06,54,11.50
2014,06,27,06,55,11.50
2014,06,27,06,56,11.50
2014,06,27,06,57,11.50
2014,06,27,06,58,11.50
2014,06,27,06,59,11.50
2014,06,27,07,00,11.50
2014,06,27,07,01,11.60
2014,06,27,07,02,11.60
2014,06,27,07,03,11.60
2014,06,27,07,04,11.60
2014,06,27,07,05,11.60
2014,06,27,07,06,11.60
2014,06,27,07,07,11.60
2014,06,27,07,08,11.60
2014,06,27,07,09,11.60
2014,06,27,07,10,11.60
2014,06,27,07,11,11.60
2014,06,27,07,12,11.60
2014,06,27,07,13,11.60
2014,06,27,07,14,11.60
2014,06,27,07,15,11.70
2014,06,27,07,16,11.70
2014,06,27,07,17,11.70
2014,06,27,07,18,11.70
2014,06,27,07,19,11.70
2014,06,27,07,20,11.80
2014,06,27,07,21,11.80
2014,06,27,07,22,11.80
2014,06,27,07,23,11.80
2014,06,27,07,24,11.80
2014,06,27,07,25,11.80
2014,06,27,07,26,11.80
2014,06,27,07,27,11.80
2014,06,27,07,28,11.80
2014,06,27,07,29,11.80
2014,06,27,07,30,11.80
2014,06,27,07,31,11.80
2014,06,27,07,32,11.80
2014,06,27,07,33,11.80
2014,06,27,07,34,11.80
2014,06,27,07,35,11.80
2014,06,27,07,36,11.80
2014,06,27,07,37,11.80
2014,06,27,07,38,11.90
2014,06,27,07,39,11.90
2014,06,27,07,40,11.90
2014,06,27,07,41,11.80
2014,06,27,07,42,11.90
2014,06,27,07,43,11.90
2014,06,27,07,44,11.90
2014,06,27,07,45,11.90
2014,06,27,07,46,11.90
2014,06,27,07,47,11.90
2014,06,27,07,48,11.90
2014,06,27,07,49,11.90
2014,06,27,07,50,11.90
2014,06,27,07,51,11.90
2014,06,27,07,52,11.90
2014,06,27,07,53,11.90
2014,06,27,07,54,11.90
2014,06,27,07,55,11.90
2014,06,27,07,56,11.90
2014,06,27,07,57,11.80
2014,06,27,07,58,11.80
2014,06,27,07,59,11.80
2014,06,27,08,00,11.80
2014,06,27,08,01,11.80
2014,06,27,08,02,11.80
2014,06,27,08,03,11.80
2014,06,27,08,04,11.80
2014,06,27,08,05,11.80
2014,06,27,08,06,11.80
2014,06,27,08,07,11.80
2014,06,27,08,08,11.80
2014,06,27,08,09,11.80
2014,06,27,08,10,11.80
2014,06,27,08,11,11.80
2014,06,27,08,12,11.80
2014,06,27,08,13,11.70
2014,06,27,08,14,11.70
2014,06,27,08,15,11.70
2014,06,27,08,16,11.70
2014,06,27,08,17,11.70
2014,06,27,08,18,11.70
2014,06,27,08,19,11.70
2014,06,27,08,20,11.80
2014,06,27,08,21,11.80
2014,06,27,08,22,11.80
2014,06,27,08,23,11.80
2014,06,27,08,24,11.80
2014,06,27,08,25,11.80
2014,06,27,08,26,11.80
2014,06,27,08,27,11.80
2014,06,27,08,28,11.80
2014,06,27,08,29,11.80
2014,06,27,08,30,11.80
2014,06,27,08,31,11.80
2014,06,27,08,32,11.90
2014,06,27,08,33,11.90
2014,06,27,08,34,11.90
2014,06,27,08,35,11.90
2014,06,27,08,36,11.90
2014,06,27,08,37,11.90
2014,06,27,08,38,12.00
2014,06,27,08,39,12.00
2014,06,27,08,40,12.00
2014,06,27,08,41,12.00
2014,06,27,08,42,12.00
2014,06,27,08,43,12.10
2014,06,27,08,44,12.10
2014,06,27,08,45,12.10
2014,06,27,08,46,12.10
2014,06,27,08,47,12.10
2014,06,27,08,48,12.10
2014,06,27,08,49,12.20
2014,06,27,08,50,12.20
2014,06,27,08,51,12.20
2014,06,27,08,52,12.20
2014,06,27,08,53,12.20
2014,06,27,08,54,12.20
2014,06,27,08,55,12.30
2014,06,27,08,56,12.30
2014,06,27,08,57,12.30
2014,06,27,08,58,12.30
2014,06,27,08,59,12.30
2014,06,27,09,00,12.40
2014,06,27,09,01,12.40
2014,06,27,09,02,12.40
2014,06,27,09,03,12.40
2014,06,27,09,04,12.40
2014,06,27,09,05,12.40
2014,06,27,09,06,12.40
2014,06,27,09,07,12.40
2014,06,27,09,08,12.50
2014,06,27,09,09,12.50
2014,06,27,09,10,12.50
2014,06,27,09,11,12.50
2014,06,27,09,12,12.60
2014,06,27,09,13,12.60
2014,06,27,09,14,12.60
2014,06,27,09,15,12.60
2014,06,27,09,16,12.60
2014,06,27,09,17,12.60
2014,06,27,09,18,12.60
2014,06,27,09,19,12.60
2014,06,27,09,20,12.60
2014,06,27,09,21,12.60
2014,06,27,09,22,12.60
2014,06,27,09,23,12.60
2014,06,27,09,24,12.70
2014,06,27,09,25,12.70
2014,06,27,09,26,12.70
2014,06,27,09,27,12.70
2014,06,27,09,28,12.60
2014,06,27,09,29,12.60
2014,06,27,09,30,12.60
2014,06,27,09,31,12.60
2014,06,27,09,32,12.70
2014,06,27,09,33,12.60
2014,06,27,09,34,12.60
2014,06,27,09,35,12.60
2014,06,27,09,36,12.60
2014,06,27,09,37,12.60
2014,06,27,09,38,12.60
2014,06,27,09,39,12.60
2014,06,27,09,40,12.60
2014,06,27,09,41,12.60
2014,06,27,09,42,12.60
2014,06,27,09,43,12.70
2014,06,27,09,44,12.70
2014,06,27,09,45,12.70
2014,06,27,09,46,12.70
2014,06,27,09,47,12.70
2014,06,27,09,48,12.80
2014,06,27,09,49,12.80
2014,06,27,09,50,12.80
2014,06,27,09,51,12.80
2014,06,27,09,52,12.80
2014,06,27,09,53,12.90
2014,06,27,09,54,12.90
2014,06,27,09,55,12.90
2014,06,27,09,56,12.90
2014,06,27,09,57,13.00
2014,06,27,09,58,13.00
2014,06,27,09,59,13.00
2014,06,27,10,00,13.00
2014,06,27,10,01,13.00
2014,06,27,10,02,13.00
2014,06,27,10,03,13.00
2014,06,27,10,04,12.90
2014,06,27,10,05,12.90
2014,06,27,10,06,12.90
2014,06,27,10,07,12.90
2014,06,27,10,08,12.90
2014,06,27,10,09,12.90
2014,06,27,10,10,12.90
2014,06,27,10,11,12.90
2014,06,27,10,12,12.90
2014,06,27,10,13,12.90
2014,06,27,10,14,12.90
2014,06,27,10,15,12.90
2014,06,27,10,16,12.90
2014,06,27,10,17,12.90
2014,06,27,10,18,12.90
2014,06,27,10,19,12.90
2014,06,27,10,20,12.90
2014,06,27,10,21,13.00
2014,06,27,10,22,13.00
2014,06,27,10,23,13.00
2014,06,27,10,24,13.00
2014,06,27,10,25,13.00
2014,06,27,10,26,13.00
2014,06,27,10,27,13.00
2014,06,27,10,28,12.90
2014,06,27,10,29,12.90
2014,06,27,10,30,12.90
2014,06,27,10,31,12.90
2014,06,27,10,32,12.90
2014,06,27,10,33,12.90
2014,06,27,10,34,12.90
2014,06,27,10,35,12.90
2014,06,27,10,36,12.90
2014,06,27,10,37,12.90
2014,06,27,10,38,12.90
2014,06,27,10,39,12.90
2014,06,27,10,40,12.90
2014,06,27,10,41,12.90
2014,06,27,10,42,12.90
2014,06,27,10,43,12.90
2014,06,27,10,44,12.90
2014,06,27,10,45,12.90
2014,06,27,10,46,12.90
2014,06,27,10,47,12.90
2014,06,27,10,48,12.90
2014,06,27,10,49,12.90
2014,06,27,10,50,12.90
2014,06,27,10,51,12.90
2014,06,27,10,52,12.90
2014,06,27,10,53,12.90
2014,06,27,10,54,12.90
2014,06,27,10,55,12.90
2014,06,27,10,56,12.90
2014,06,27,10,57,12.90
2014,06,27,10,58,12.90
2014,06,27,10,59,12.90
2014,06,27,11,00,12.90
2014,06,27,11,01,12.90
2014,06,27,11,02,12.90
2014,06,27,11,03,12.90
2014,06,27,11,04,12.90
2014,06,27,11,05,12.90
2014,06,27,11,06,13.00
2014,06,27,11,07,13.00
2014,06,27,11,08,13.00
2014,06,27,11,09,13.00
2014,06,27,11,10,13.00
2014,06,27,11,11,13.00
2014,06,27,11,12,13.00
2014,06,27,11,13,13.00
2014,06,27,11,14,13.00
2014,06,27,11,15,13.00
2014,06,27,11,16,13.00
2014,06,27,11,17,13.00
2014,06,27,11,18,13.00
2014,06,27,11,19,13.00
2014,06,27,11,20,13.00
2014,06,27,11,21,13.00
2014,06,27,11,22,13.00
2014,06,27,11,23,13.10
2014,06,27,11,24,13.10
2014,06,27,11,25,13.10
2014,06,27,11,26,13.10
2014,06,27,11,27,13.10
2014,06,27,11,28,13.10
2014,06,27,11,29,13.10
2014,06,27,11,30,13.10
2014,06,27,11,31,13.10
2014,06,27,11,32,13.10
2014,06,27,11,33,13.10
2014,06,27,11,34,13.10
2014,06,27,11,35,13.10
2014,06,27,11,36,13.10
2014,06,27,11,37,13.10
2014,06,27,11,38,13.10
2014,06,27,11,39,13.20
2014,06,27,11,40,13.20
2014,06,27,11,41,13.20
2014,06,27,11,42,13.20
2014,06,27,11,43,13.20
2014,06,27,11,44,13.20
2014,06,27,11,45,13.20
2014,06,27,11,46,13.20
2014,06,27,11,47,13.30
2014,06,27,11,48,13.30
2014,06,27,11,49,13.30
2014,06,27,11,50,13.30
2014,06,27,11,51,13.40
2014,06,27,11,52,13.40
2014,06,27,11,53,13.40
2014,06,27,11,54,13.50
2014,06,27,11,55,13.50
2014,06,27,11,56,13.60
2014,06,27,11,57,13.60
2014,06,27,11,58,13.60
2014,06,27,11,59,13.60
2014,06,27,12,00,13.70
2014,06,27,12,01,13.70
2014,06,27,12,02,13.70
2014,06,27,12,03,13.70
2014,06,27,12,04,13.70
2014,06,27,12,05,13.70
2014,06,27,12,06,13.70
2014,06,27,12,07,13.70
2014,06,27,12,08,13.70
2014,06,27,12,09,13.80
2014,06,27,12,10,13.80
2014,06,27,12,11,13.80
2014,06,27,12,12,13.80
2014,06,27,12,13,13.80
2014,06,27,12,14,13.80
2014,06,27,12,15,13.80
2014,06,27,12,16,13.90
2014,06,27,12,17,13.90
2014,06,27,12,18,13.90
2014,06,27,12,19,13.90
2014,06,27,12,20,13.90
2014,06,27,12,21,13.90
2014,06,27,12,22,13.90
2014,06,27,12,23,13.90
2014,06,27,12,24,13.90
2014,06,27,12,25,13.80
2014,06,27,12,26,13.80
2014,06,27,12,27,13.80
2014,06,27,12,28,13.80
2014,06,27,12,29,13.80
2014,06,27,12,30,13.80
2014,06,27,12,31,13.80
2014,06,27,12,32,13.80
2014,06,27,12,33,13.80
2014,06,27,12,34,13.80
2014,06,27,12,35,13.90
2014,06,27,12,36,13.90
2014,06,27,12,37,13.90
2014,06,27,12,38,14.00
2014,06,27,12,39,13.90
2014,06,27,12,40,13.90
2014,06,27,12,41,13.90
2014,06,27,12,42,13.90
2014,06,27,12,43,13.90
2014,06,27,12,44,13.90
2014,06,27,12,45,13.90
2014,06,27,12,46,13.90
2014,06,27,12,47,14.00
2014,06,27,12,48,14.00
2014,06,27,12,49,14.10
2014,06,27,12,50,14.10
2014,06,27,12,51,14.10
2014,06,27,12,52,14.10
2014,06,27,12,53,14.20
2014,06,27,12,54,14.10
2014,06,27,12,55,14.10
2014,06,27,12,56,14.20
2014,06,27,12,57,14.20
2014,06,27,12,58,14.30
2014,06,27,12,59,14.30
2014,06,27,13,00,14.30
2014,06,27,13,01,14.30
2014,06,27,13,02,14.30
2014,06,27,13,03,14.30
2014,06,27,13,04,14.30
2014,06,27,13,05,14.40
2014,06,27,13,06,14.40
2014,06,27,13,07,14.40
2014,06,27,13,08,14.40
2014,06,27,13,09,14.40
2014,06,27,13,10,14.50
2014,06,27,13,11,14.50
2014,06,27,13,12,14.40
2014,06,27,13,13,14.40
2014,06,27,13,14,14.40
2014,06,27,13,15,14.40
2014,06,27,13,16,14.40
2014,06,27,13,17,14.40
2014,06,27,13,18,14.40
2014,06,27,13,19,14.40
2014,06,27,13,20,14.40
2014,06,27,13,21,14.40
2014,06,27,13,22,14.40
2014,06,27,13,23,14.40
2014,06,27,13,24,14.40
2014,06,27,13,25,14.50
2014,06,27,13,26,14.50
2014,06,27,13,27,14.60
2014,06,27,13,28,14.70
2014,06,27,13,29,14.70
2014,06,27,13,30,14.80
2014,06,27,13,31,14.80
2014,06,27,13,32,14.90
2014,06,27,13,33,14.90
2014,06,27,13,34,15.00
2014,06,27,13,35,15.10
2014,06,27,13,36,15.10
2014,06,27,13,37,15.20
2014,06,27,13,38,15.20
2014,06,27,13,39,15.30
2014,06,27,13,40,15.30
2014,06,27,13,41,15.30
2014,06,27,13,42,15.30
2014,06,27,13,43,15.40
2014,06,27,13,44,15.50
2014,06,27,13,45,15.50
2014,06,27,13,46,15.60
2014,06,27,13,47,15.70
2014,06,27,13,48,15.70
2014,06,27,13,49,15.70
2014,06,27,13,50,15.70
2014,06,27,13,51,15.60
2014,06,27,13,52,15.60
2014,06,27,13,53,15.60
2014,06,27,13,54,15.50
2014,06,27,13,55,15.50
2014,06,27,13,56,15.50
2014,06,27,13,57,15.40
2014,06,27,13,58,15.40
2014,06,27,13,59,15.40
2014,06,27,14,00,15.40
2014,06,27,14,01,15.40
2014,06,27,14,02,15.50
2014,06,27,14,03,15.60
2014,06,27,14,04,15.60
2014,06,27,14,05,15.70
2014,06,27,14,06,15.80
2014,06,27,14,07,15.90
2014,06,27,14,08,16.00
2014,06,27,14,09,16.00
2014,06,27,14,10,16.00
2014,06,27,14,11,16.00
2014,06,27,14,12,16.10
2014,06,27,14,13,16.10
2014,06,27,14,14,16.00
2014,06,27,14,15,16.10
2014,06,27,14,16,16.10
2014,06,27,14,17,16.10
2014,06,27,14,18,16.10
2014,06,27,14,19,16.10
2014,06,27,14,20,16.00
2014,06,27,14,21,16.00
2014,06,27,14,22,16.00
2014,06,27,14,23,16.00
2014,06,27,14,24,16.00
2014,06,27,14,25,16.00
2014,06,27,14,26,16.10
2014,06,27,14,27,16.10
2014,06,27,14,28,16.10
2014,06,27,14,29,16.10
2014,06,27,14,30,16.10
2014,06,27,14,31,16.10
2014,06,27,14,32,16.00
2014,06,27,14,33,16.00
2014,06,27,14,34,15.90
2014,06,27,14,35,15.90
2014,06,27,14,36,15.90
2014,06,27,14,37,16.00
2014,06,27,14,38,16.00
2014,06,27,14,39,16.10
2014,06,27,14,40,16.10
2014,06,27,14,41,16.10
2014,06,27,14,42,16.20
2014,06,27,14,43,16.20
2014,06,27,14,44,16.30
2014,06,27,14,45,16.30
2014,06,27,14,46,16.30
2014,06,27,14,47,16.40
2014,06,27,14,48,16.40
2014,06,27,14,49,16.30
2014,06,27,14,50,16.30
2014,06,27,14,51,16.30
2014,06,27,14,52,16.30
2014,06,27,14,53,16.30
2014,06,27,14,54,16.20
2014,06,27,14,55,16.20
2014,06,27,14,56,16.20
2014,06,27,14,57,16.20
2014,06,27,14,58,16.20
2014,06,27,14,59,16.30
2014,06,27,15,00,16.30
2014,06,27,15,01,16.40
2014,06,27,15,02,16.40
2014,06,27,15,03,16.40
2014,06,27,15,04,16.40
2014,06,27,15,05,16.40
2014,06,27,15,06,16.40
2014,06,27,15,07,16.40
2014,06,27,15,08,16.40
2014,06,27,15,09,16.40
2014,06,27,15,10,16.40
2014,06,27,15,11,16.30
2014,06,27,15,12,16.30
2014,06,27,15,13,16.30
2014,06,27,15,14,16.30
2014,06,27,15,15,16.30
2014,06,27,15,16,16.30
2014,06,27,15,17,16.30
2014,06,27,15,18,16.30
2014,06,27,15,19,16.30
2014,06,27,15,20,16.30
2014,06,27,15,21,16.40
2014,06,27,15,22,16.40
2014,06,27,15,23,16.40
2014,06,27,15,24,16.40
2014,06,27,15,25,16.40
2014,06,27,15,26,16.50
2014,06,27,15,27,16.50
2014,06,27,15,28,16.60
2014,06,27,15,29,16.60
2014,06,27,15,30,16.70
2014,06,27,15,31,16.70
2014,06,27,15,32,16.80
2014,06,27,15,33,16.90
2014,06,27,15,34,16.90
2014,06,27,15,35,17.00
2014,06,27,15,36,17.10
2014,06,27,15,37,17.20
2014,06,27,15,38,17.20
2014,06,27,15,39,17.30
2014,06,27,15,40,17.30
2014,06,27,15,41,17.40
2014,06,27,15,42,17.40
2014,06,27,15,43,17.50
2014,06,27,15,44,17.50
2014,06,27,15,45,17.50
2014,06,27,15,46,17.50
2014,06,27,15,47,17.50
2014,06,27,15,48,17.50
2014,06,27,15,49,17.50
2014,06,27,15,50,17.50
2014,06,27,15,51,17.40
2014,06,27,15,52,17.40
2014,06,27,15,53,17.40
2014,06,27,15,54,17.40
2014,06,27,15,55,17.40
2014,06,27,15,56,17.30
2014,06,27,15,57,17.30
2014,06,27,15,58,17.30
2014,06,27,15,59,17.20
2014,06,27,16,00,17.20
2014,06,27,16,01,17.20
2014,06,27,16,02,17.20
2014,06,27,16,03,17.20
2014,06,27,16,04,17.20
2014,06,27,16,05,17.20
2014,06,27,16,06,17.20
2014,06,27,16,07,17.20
2014,06,27,16,08,17.20
2014,06,27,16,09,17.10
2014,06,27,16,10,17.10
2014,06,27,16,11,17.10
2014,06,27,16,12,17.10
2014,06,27,16,13,17.10
2014,06,27,16,14,17.10
2014,06,27,16,15,17.10
2014,06,27,16,16,17.10
2014,06,27,16,17,17.10
2014,06,27,16,18,17.10
2014,06,27,16,19,17.00
2014,06,27,16,20,17.00
2014,06,27,16,21,17.00
2014,06,27,16,22,16.90
2014,06,27,16,23,16.90
2014,06,27,16,24,16.90
2014,06,27,16,25,16.90
2014,06,27,16,26,16.80
2014,06,27,16,27,16.80
2014,06,27,16,28,16.80
2014,06,27,16,29,16.80
2014,06,27,16,30,16.80
2014,06,27,16,31,16.80
2014,06,27,16,32,16.80
2014,06,27,16,33,16.80
2014,06,27,16,34,16.80
2014,06,27,16,35,16.80
2014,06,27,16,36,16.80
2014,06,27,16,37,16.80
2014,06,27,16,38,16.80
2014,06,27,16,39,16.80
2014,06,27,16,40,16.90
2014,06,27,16,41,16.90
2014,06,27,16,42,16.90
2014,06,27,16,43,16.90
2014,06,27,16,44,16.90
2014,06,27,16,45,16.90
2014,06,27,16,46,16.90
2014,06,27,16,47,16.80
2014,06,27,16,48,16.80
2014,06,27,16,49,16.80
2014,06,27,16,50,16.70
2014,06,27,16,51,16.70
2014,06,27,16,52,16.70
2014,06,27,16,53,16.70
2014,06,27,16,54,16.80
2014,06,27,16,55,16.80
2014,06,27,16,56,16.90
2014,06,27,16,57,16.90
2014,06,27,16,58,16.90
2014,06,27,16,59,17.00
2014,06,27,17,00,17.00
2014,06,27,17,01,17.00
2014,06,27,17,02,17.00
2014,06,27,17,03,17.00
2014,06,27,17,04,17.00
2014,06,27,17,05,17.00
2014,06,27,17,06,17.00
2014,06,27,17,07,17.00
2014,06,27,17,08,17.00
2014,06,27,17,09,17.00
2014,06,27,17,10,16.90
2014,06,27,17,11,16.90
2014,06,27,17,12,16.90
2014,06,27,17,13,16.90
2014,06,27,17,14,16.80
2014,06,27,17,15,16.80
2014,06,27,17,16,16.80
2014,06,27,17,17,16.80
2014,06,27,17,18,16.80
2014,06,27,17,19,16.80